Погода в Обуаси

Гана     6°11′35″N   1°41′35″W
темп.,
°C
ветер,
м/с
пор.,
м/с
влажн.,
%
обл.,
%
осадки,
мм/ч
давл.,
гПа
погр.,
м
8 марта, пн
пн800:00+24юз179796 10.8 1012331
03:00+23юз179846 0.0 1009319
06:00+23юз179938 0.0 1010329
09:00+27юз368341 0.0 1011658
12:00+33юз235243 0.0 10091338
15:00+35ю114356 0.0 10062078
18:00+28ююз387173 0.5 1007440
21:00+25ююз3109399 4.4 1010427
9 марта, вт
вт900:00+24ююз1796100 4.4 1010421
03:00+23юз199892 0.0 1008515
06:00+23зюз299886 0.0 1009500
09:00+27зюз268173 0.1 1011773
12:00+31зюз235981 0.3 10101217
15:00+31ююз236369 1.9 10071240
18:00+27ююз258484 5.4 1007148
21:00+24ю1592100 0.0 1010185
10 марта, ср
ср1000:00+24юз299669 0.0 1010409
03:00+23юз179829 0.0 1009301
06:00+23з159930 0.0 1009279
09:00+26юз258386 0.1 1011691
12:00+32юз245590 0.1 10101157
15:00+34ююз224776 0.0 10061869
18:00+29ю376882 0.0 1007470
21:00+26юз288480 0.1 1009593
11 марта, чт
чт1100:00+25юз298984 0.1 1010513
03:00+24юз169496 0.0 1009380
06:00+23юз149880 0.0 1009250
09:00+28юз257344 0.1 1011851
12:00+30юз246472 0.1 10091085
15:00+32юз2358100 0.0 10061348
18:00+27ююз2684100 6.6 1007208
21:00+24ю1595100 9.4 1010272
12 марта, пт
пт1200:00+24зюз179695 9.4 1010309
03:00+23юз1797100 0.0 1008347
06:00+23з1199100 0.0 100934
09:00+27зюз258064 0.0 1011655
12:00+32зюз235552 0.1 10091313
15:00+32юз235894 2.8 10061099
18:00+27ююз267897 3.9 1008358
21:00+24юз2992100 8.7 1011319